STARLINK-31173

decayed
NORAD ID: 58802 Int'l Des: 2024-012 Owner: SPXS Country: US Constellation: starlink
LEOCIRCULAR
グループ

STARLINK-31173について

説明を読み込み中...

高度履歴

Altitude vs Time

uPlot chart will show altitude changes over time

軌道要素

1 58802U 24012R 25069.23500069 .13308033 87058-5 68242-2 0 9997
2 58802 42.9838 16.0594 0013892 209.3843 293.6832 16.19244584 66049
Epoch: Mar 10, 2025 • Age: 4559 hours

現在のステータス

Position data unavailable
打ち上げ日 Jan 15, 2024
運用期間 1.6 years
落下予定日 Mar 10, 2025
タイプ internet

技術仕様

分類 Payload
質量 730.00 kg
乾燥質量 700.00 kg
総質量 730.00 kg
長さ 0.30 m
直径 4.10 m
スパン 29.00 m
形状 Box + pan
製造者 SPXS
バスタイプ Starlink V2M
フェーズステータス Reentered
所有者/国 SPXS/US

大規模コンステレーション

Loading constellations...